Date String (YYYY-MM-DD hh:mm:ss) UTC,Instrument flags,Ambient pressure (hPa),Sample flow (lpm),Bypass flow (lpm),Sample temperature (°C),Ambient temperature (°C),ASC tube jacket temperature (°C),LED temperature (°C),Box temperature (°C),Sample RH (%),Span deviation,Mass concentration (μg/m³),Mass concentration (μg/m³),Mass concentration (μg/m³)
DateTimeUTC,F1_M11,P_M11,Q1_M11,Q2_M11,T1_M11,T2_M11,T3_M11,T4_M11,T5_M11,U1_M11,ZSPAN_M11,X0_M11,X2_M11,X1_M11
2021-10-21 23:00:00,,0830.9,5.01,0.00,28.3,27.7,00.0,37.2,30.1,10.3,0000.0,0013.47,0004.06,0003.14
2021-10-21 23:01:00,,0830.9,4.98,0.00,28.3,27.7,00.0,37.2,30.1,10.2,0000.0,0014.50,0004.08,0003.13
2021-10-21 23:02:00,,0830.9,5.00,0.00,28.3,27.7,00.0,37.2,30.1,10.3,0000.0,0014.36,0004.13,0003.14
2021-10-21 23:03:00,,0830.8,5.00,0.00,28.3,27.7,00.0,37.2,30.1,10.3,0000.0,0014.59,0004.12,0003.14
2021-10-21 23:04:00,,0830.8,5.01,0.00,28.3,27.7,00.0,37.3,30.1,10.1,0000.0,0014.40,0004.15,0003.13
2021-10-21 23:05:00,,0830.8,5.01,0.00,28.3,27.7,00.0,37.3,30.1,10.2,0000.0,0015.04,0004.18,0003.14
2021-10-21 23:06:00,,0830.7,4.99,0.00,28.3,27.7,00.0,37.3,30.1,10.3,0000.0,0014.95,0004.20,0003.15
2021-10-21 23:07:00,,0830.7,5.00,0.00,28.3,27.7,00.0,37.3,30.1,10.4,0000.0,0015.11,0004.17,0003.16
2021-10-21 23:08:00,,0830.8,5.00,0.00,28.3,27.7,00.0,37.3,30.0,10.5,0000.0,0015.08,0004.19,0003.16
2021-10-21 23:09:00,,0830.8,4.99,0.00,28.3,27.7,00.0,37.3,30.0,10.4,0000.0,0016.34,0004.19,0003.16
2021-10-21 23:10:00,,0830.8,5.00,0.00,28.3,27.7,00.0,37.3,30.1,10.4,0002.2,0016.18,0004.18,0003.17
2021-10-21 23:11:00,,0830.8,5.01,0.00,28.3,27.7,00.0,37.3,30.1,10.4,0001.3,0015.39,0004.20,0003.18
2021-10-21 23:12:00,,0830.8,5.01,0.00,28.3,27.7,00.0,37.3,30.1,10.4,0001.5,0014.21,0004.19,0003.19
2021-10-21 23:13:00,,0830.8,4.99,0.00,28.3,27.7,00.0,37.3,30.1,10.6,0000.0,0014.51,0004.16,0003.18
2021-10-21 23:14:00,,0830.8,4.99,0.00,28.3,27.7,00.0,37.3,30.1,10.6,0000.0,0014.18,0004.18,0003.18
2021-10-21 23:15:00,,0830.8,5.01,0.00,28.3,27.7,00.0,37.3,30.1,10.6,0000.0,0014.50,0004.20,0003.19
2021-10-21 23:16:00,,0830.8,5.00,0.00,28.3,27.7,00.0,37.3,30.1,10.6,0000.0,0015.56,0004.21,0003.19
2021-10-21 23:17:00,,0830.8,5.01,0.00,28.4,27.8,00.0,37.3,30.1,10.6,0000.0,0016.62,0004.24,0003.18
2021-10-21 23:18:00,,0830.8,5.00,0.00,28.4,27.8,00.0,37.3,30.1,10.6,0000.0,0016.72,0004.26,0003.17
2021-10-21 23:19:00,,0830.8,4.99,0.00,28.4,27.8,00.0,37.3,30.2,10.7,0000.0,0017.21,0004.27,0003.17
2021-10-21 23:20:00,,0830.8,4.99,0.00,28.4,27.8,00.0,37.4,30.2,10.7,0000.0,0016.82,0004.26,0003.17
2021-10-21 23:21:00,,0830.8,5.00,0.00,28.4,27.8,00.0,37.4,30.2,10.7,0000.0,0016.28,0004.25,0003.16
2021-10-21 23:22:00,,0830.8,5.00,0.00,28.4,27.8,00.0,37.4,30.2,10.7,0000.0,0016.47,0004.29,0003.17
2021-10-21 23:23:00,,0830.8,5.00,0.00,28.4,27.9,00.0,37.4,30.3,10.7,0000.0,0016.97,0004.38,0003.17
2021-10-21 23:24:00,,0830.7,4.99,0.00,28.5,27.9,00.0,37.4,30.3,10.7,0000.0,0016.67,0004.39,0003.18
2021-10-21 23:25:00,,0830.9,5.01,0.00,28.5,27.9,00.0,37.4,30.4,10.7,0000.0,0017.46,0004.39,0003.19
2021-10-21 23:26:00,,0830.9,4.99,0.00,28.5,27.9,00.0,37.4,30.4,10.7,0000.0,0017.67,0004.33,0003.18
2021-10-21 23:27:00,,0830.8,5.00,0.00,28.5,28.0,00.0,37.5,30.4,10.7,0000.0,0015.84,0004.28,0003.17
2021-10-21 23:28:00,,0830.8,5.00,0.00,28.5,28.0,00.0,37.5,30.4,10.7,0000.0,0015.41,0004.27,0003.16
2021-10-21 23:29:00,,0830.8,5.00,0.00,28.6,28.0,00.0,37.5,30.4,10.6,0000.0,0015.16,0004.26,0003.17
2021-10-21 23:30:00,,0830.9,5.01,0.00,28.6,28.0,00.0,37.5,30.4,10.5,0000.0,0014.02,0004.26,0003.17
2021-10-21 23:31:00,,0830.9,4.99,0.00,28.6,28.0,00.0,37.5,30.4,10.5,0000.0,0013.27,0004.28,0003.18
2021-10-21 23:32:00,,0830.8,5.00,0.00,28.6,28.0,00.0,37.5,30.4,10.5,0000.0,0013.70,0004.32,0003.17
2021-10-21 23:33:00,,0830.8,5.01,0.00,28.6,28.0,00.0,37.5,30.4,10.4,0000.0,0013.85,0004.29,0003.17
2021-10-21 23:34:00,,0830.9,5.00,0.00,28.6,28.0,00.0,37.6,30.4,10.5,0000.0,0013.46,0004.23,0003.16
2021-10-21 23:35:00,,0830.9,5.00,0.00,28.6,28.1,00.0,37.6,30.5,10.5,0000.0,0013.36,0004.23,0003.17
2021-10-21 23:36:00,,0830.9,5.01,0.00,28.7,28.1,00.0,37.6,30.5,10.5,0000.0,0012.55,0004.25,0003.16
2021-10-21 23:37:00,,0830.9,5.00,0.00,28.7,28.1,00.0,37.6,30.5,10.5,0000.0,0012.14,0004.25,0003.15
2021-10-21 23:38:00,,0830.9,4.99,0.00,28.7,28.1,00.0,37.6,30.5,10.4,0000.0,0012.70,0004.30,0003.15
2021-10-21 23:39:00,,0830.9,4.99,0.00,28.7,28.1,00.0,37.6,30.6,10.4,0000.0,0012.19,0004.36,0003.16
2021-10-21 23:40:00,,0830.9,5.00,0.00,28.7,28.2,00.0,37.7,30.6,10.3,0000.0,0013.27,0004.40,0003.16
2021-10-21 23:41:00,,0830.9,5.01,0.00,28.8,28.2,00.0,37.7,30.6,10.3,0000.0,0013.98,0004.43,0003.16
2021-10-21 23:42:00,,0830.9,5.00,0.00,28.8,28.2,00.0,37.7,30.6,10.3,0000.0,0015.76,0004.42,0003.16
2021-10-21 23:43:00,,0830.9,5.00,0.00,28.8,28.2,00.0,37.7,30.6,10.3,0000.0,0015.92,0004.43,0003.17
2021-10-21 23:44:00,,0830.9,5.00,0.00,28.8,28.2,00.0,37.7,30.7,10.3,0000.0,0015.53,0004.48,0003.18
2021-10-21 23:45:00,,0830.9,4.99,0.00,28.8,28.2,00.0,37.7,30.7,10.4,0000.0,0016.54,0004.51,0003.18
2021-10-21 23:46:00,,0830.9,5.00,0.00,28.8,28.2,00.0,37.8,30.7,10.4,0000.0,0016.94,0004.51,0003.18
2021-10-21 23:47:00,,0830.9,5.00,0.00,28.9,28.3,00.0,37.8,30.7,10.3,0000.0,0017.03,0004.50,0003.18
2021-10-21 23:48:00,,0830.9,5.00,0.00,28.9,28.3,00.0,37.8,30.7,10.3,0000.0,0017.08,0004.53,0003.17
2021-10-21 23:49:00,,0830.9,4.99,0.00,28.9,28.3,00.0,37.8,30.7,10.3,0000.0,0016.83,0004.49,0003.16
2021-10-21 23:50:00,,0830.9,5.00,0.00,28.9,28.3,00.0,37.8,30.7,10.2,0000.0,0017.00,0004.44,0003.16
2021-10-21 23:51:00,,0830.9,5.00,0.00,28.9,28.3,00.0,37.8,30.7,10.1,0000.0,0016.49,0004.42,0003.15
2021-10-21 23:52:00,,0830.9,5.01,0.00,28.9,28.3,00.0,37.9,30.7,10.1,0000.0,0017.04,0004.45,0003.15
2021-10-21 23:53:00,,0830.9,4.99,0.00,28.9,28.3,00.0,37.9,30.8,10.1,0000.0,0015.50,0004.48,0003.15
2021-10-21 23:54:00,,0830.9,5.00,0.00,29.0,28.4,00.0,37.9,30.8,10.1,0000.0,0015.73,0004.47,0003.15
2021-10-21 23:55:00,,0830.9,5.01,0.00,29.0,28.4,00.0,37.9,30.8,10.0,0000.0,0016.84,0004.39,0003.15
2021-10-21 23:56:00,,0830.9,5.00,0.00,29.0,28.4,00.0,37.9,30.8,10.0,0000.0,0016.18,0004.35,0003.14
2021-10-21 23:57:00,,0830.9,4.99,0.00,29.0,28.4,00.0,37.9,30.8,10.0,0000.0,0015.43,0004.35,0003.13
2021-10-21 23:58:00,,0831.0,5.01,0.00,29.0,28.4,00.0,37.9,30.8,10.0,0000.0,0015.75,0004.38,0003.15
2021-10-21 23:59:00,,0831.0,5.00,0.00,29.0,28.4,00.0,37.9,30.8,10.0,0000.0,0016.54,0004.41,0003.16
